Regional Weather Roundup
Issued by NWS

Home | Current Version | Previous Version | Text Only | Print | Product List | Glossary Off
Versions: 1 2 3 4 5 6 7 8 9 10 11 12 13 14 15 16 17 18 19 20 21 22 23 24 25 26 27 28 29 30 31 32 33 34 35 36 37 38 39 40 41 42 43 44 45 46 47 48 49 50

000
ASUS43 KDMX 200101
RWRIA

WEATHER ROUNDUP FOR IOWA
NATIONAL WEATHER SERVICE DES MOINES IA
700 PM CST MON FEB 19 2018

NOTE: "FAIR" INDICATES FEW OR NO CLOUDS BELOW 12,000 FEET WITH NO
SIGNIFICANT WEATHER AND/OR OBSTRUCTIONS TO VISIBILITY.

* - THESE STATIONS ARE NOT NWS STATIONS...THUS NOT UNDER NWS
QUALITY CONTROL.  THEY ALSO DO NOT REPORT WEATHER SUCH
AS PRECIPITATION OR FOG.

IAZ001>003-012>014-020>022-031>034-043>046-200200-
   NORTHWEST IOWA

CITY           SKY/WX    TMP DP  RH WIND       PRES   REMARKS
CARROLL *      CLOUDY    23  23 100 NW14      29.83R FOG     WCI  11
CHEROKEE *     CLOUDY    21  20  97 N7        29.86R WCI  12
DENISON *      CLOUDY    21  21 100 N9        29.86R FOG     WCI  11
LE MARS *      CLOUDY    19  18  93 MISG      29.88R
ORANGE CITY *  CLOUDY    18  18 100 N13       29.86R WCI   4
SHELDON *      CLOUDY    16  16 100 MISG      29.85R
SIOUX CITY     CLOUDY    20  17  88 N13       29.88R WCI   7
SPENCER        MIX PCPN  20  17  88 N16       29.85R FOG     WCI   6
STORM LAKE *   CLOUDY    19  19 100 MISG      29.82R
$$

IAZ055>058-069>071-079>083-090>094-200200-
   SOUTHWEST IOWA

CITY           SKY/WX    TMP DP  RH WIND       PRES   REMARKS
ATLANTIC *     CLOUDY    25  25 100 N8G15     29.84R WCI  16
AUDUBON *      CLOUDY    23  21  93 NW8       29.83R FOG     WCI  14
CLARINDA *     CLOUDY    27  27 100 NW9       29.87R WCI  17
COUNCIL BLFS * CLOUDY    21  23 100 NW9G16    29.85S WCI  11
CRESTON *      CLOUDY    27  27 100 NW12      29.83R FOG     WCI  16
HARLAN  *      CLOUDY    23  23 100 NW15      29.86F WCI  10
LAMONI         CLOUDY    30  28  92 NW12      29.81R WCI  20
RED OAK *      CLOUDY    25  25 100 N9        29.85R WCI  15
SHENANDOAH *   CLOUDY    25  25 100 N9        29.87R WCI  15
$$

IAZ047>049-059>061-072>074-084-200200-
   CENTRAL IOWA

CITY           SKY/WX    TMP DP  RH WIND       PRES   REMARKS
AMES           CLOUDY    30  29  96 NW12      29.79R FOG     WCI  20
ANKENY *       CLOUDY    30  28  93 W10G16    29.82R FOG     WCI  21
BOONE *        CLOUDY    27  27 100 MISG      29.78R FOG
CHARITON *     CLOUDY    32  32 100 NW8       29.81R FOG     WCI  25
DES MOINES     CLOUDY    29  28  96 NW13      29.82R WCI  19
GRINNELL*      CLOUDY    33  33  99 W8        29.78R FOG     WCI  26
KNOXVILLE *    FOG       32  32 100 W8        29.78S VSB 1   WCI  25
MARSHALLTOWN   CLOUDY    33  33 100 W12       29.74S FOG     WCI  24
NEWTON *       CLOUDY    32  32 100 W9        29.78R FOG     WCI  24
PELLA *        CLOUDY    33  32  98 W7        29.80R FOG     WCI  27
$$

IAZ004>006-015-016-023>025-035-036-200200-
   NORTH CENTRAL IOWA

CITY           SKY/WX    TMP DP  RH WIND       PRES   REMARKS
CLARION *      CLOUDY    28  28 100 N13G18    29.78R WCI  18
ESTHERVILLE    CLOUDY    18  17  96 N22       29.81F FOG     WCI   1
FORT DODGE *   CLOUDY    25  24  96 NW9       29.81R WCI  15
MASON CITY     CLOUDY    28  26  92 N15       29.78R FOG     WCI  16
FOREST CITY *  CLOUDY    28  28 100 N9        29.78R WCI  20
WEBSTER CITY * CLOUDY    28  28 100 NW15      29.76S FOG     WCI  17
IOWA FALLS *   CLOUDY    32  32  99 NW14      29.77R FOG     WCI  22
$$

IAZ007>011-017>019-026>030-037>042-050>054-066-200200-
   NORTHEAST IOWA

CITY           SKY/WX    TMP DP  RH WIND       PRES   REMARKS
CEDAR RAPIDS   LGT RAIN  40  39  97 W12       29.75R WCI  33
CHARLES CITY * MIX PCPN  34  34 100 N9        29.74R VSB 3/4 WCI  26
CLINTON *      LGT RAIN  51  51 100 MISG        N/A  VSB 1/4
DECORAH *      CLOUDY    37  36  93 VRB5      29.72R FOG     WCI  34
DUBUQUE        MIX PCPN  36  35  96 CALM      29.72R VSB 1/2
MONTICELLO *   RAIN      37  37 100 CALM      29.73S VSB 1/4
OELWEIN *      FOG       36  36 100 CALM      29.72S VSB 1/4
WATERLOO       FOG       35  35 100 W6        29.73R VSB 1/2 WCI  30
$$

IAZ064-065-067-068-078-200200-
   EAST CENTRAL IOWA

CITY           SKY/WX    TMP DP  RH WIND       PRES   REMARKS
DAVENPORT      CLOUDY    57  54  89 SW9       29.75R
IOWA CITY      LGT RAIN  42  32  67 W7        29.77R
MT. PLEASANT * LGT RAIN  45  45 100 W9        29.77R
MUSCATINE *    CLOUDY    50  48  93 NW12      29.77R FOG
QUAD CITIES    CLOUDY    60  57  89 S15       29.72R
$$

IAZ062-063-075>077-085>089-095>099-200200-
   SOUTHEAST IOWA

CITY           SKY/WX    TMP DP  RH WIND       PRES   REMARKS
BURLINGTON     LGT RAIN  59  57  93 S14       29.76R
FAIRFIELD *    CLOUDY    39  39 100 W10       29.77R FOG     WCI  32
FORT MADISON * LGT RAIN  59  59 100 S13       29.76R
KEOKUK *       RAIN      61  61 100 SW14G23   29.74S
OSKALOOSA *    RAIN      34  34  99 W9        29.80R WCI  27
OTTUMWA        CLOUDY    37  35  92 NW10      29.77S FOG     WCI  30
WASHINGTON *   LGT RAIN  41  41 100 W13G18    29.78R
$$

ABBREVIATIONS USED IN REMARKS
   TC - TEMPERATURES IN CELSIUS
  WCI - WIND CHILL INDEX
   HX - HEAT INDEX
  VSB - VISIBILITY
$$




USA.gov is the U.S. government's official web portal to all federal, state and local government web resources and services.